Weather History for Millville, NJ

Change the Weather History Date:

Tuesday, January 28, 2014

  Actual Average Record
Temperature  
Mean Temperature 16 °F -  
Max Temperature 19 °F 39 °F 66 °F (1949)
Min Temperature 12 °F 21 °F -10 °F (1987)
Degree Days  
Heating Degree Days 50    
Moisture  
Dew Point -1 °F    
Average Humidity 49    
Maximum Humidity 88    
Minimum Humidity 39    
Precipitation  
Precipitation 0.00 in - - ()
Sea Level Pressure  
Sea Level Pressure 30.31 in    
Wind  
Wind Speed 9 mph (NW)    
Max Wind Speed 15 mph    
Max Gust Speed 24 mph    
Visibility 9 miles    
Events Snow    
Averages and records for this station are not official NWS values.
T = Trace of Precipitation, MM = Missing Value Source: NWS Daily Summary

Daily Weather History Graph

Daily Weather History Graph

Search for Another Location

Airport:

Trip Planner

Search our weather history database for the weather conditions in past years. The results will help you decide how hot, cold, wet, or windy it might be!

Date:

Astronomy

Jan. 28, 2014 Rise Set
Actual Time 7:10 AM EST 5:16 PM EST
Civil Twilight 6:42 AM EST 5:44 PM EST
Nautical Twilight 6:10 AM EST 6:17 PM EST
Astronomical Twilight 5:38 AM EST 6:48 PM EST
Moon 4:49 AM EST (1/28) 3:03 PM EST (1/28)
Length of Visible Light 11h 02m
Length of Day
10h 05m
Waning Crescent, 7% of the Moon is Illuminated
Jan 28
Waning Crescent
Jan 30
New
Feb 6
First Quarter
Feb 14
Full
Feb 22
Last Quarter

Hourly Weather History & Observations

Time (EST) Temp. Windchill Dew Point Humidity Pressure Visibility Wind Dir Wind Speed Gust Speed Precip Events Conditions
12:54 AM 19.9 °F 10.1 °F 1.0 °F 44% 30.16 in 10.0 mi NW 8.1 mph - N/A   Clear
1:54 AM 19.0 °F 5.6 °F -0.9 °F 42% 30.19 in 10.0 mi NW 13.8 mph 19.6 mph N/A   Clear
2:54 AM 18.0 °F 4.8 °F -0.0 °F 45% 30.22 in 10.0 mi NW 12.7 mph 24.2 mph N/A   Clear
3:54 AM 18.0 °F 8.7 °F -0.0 °F 45% 30.24 in 10.0 mi NW 6.9 mph 17.3 mph N/A   Clear
4:54 AM 17.1 °F 5.0 °F -0.0 °F 47% 30.27 in 10.0 mi NNW 10.4 mph - N/A   Clear
5:54 AM 16.0 °F 2.9 °F -0.0 °F 49% 30.31 in 10.0 mi NNW 11.5 mph - N/A   Clear
6:54 AM 14.0 °F -1.4 °F -7.1 °F 39% 30.35 in 10.0 mi NW 15.0 mph 21.9 mph N/A   Scattered Clouds
7:54 AM 12.9 °F -1.6 °F -6.0 °F 43% 30.36 in 10.0 mi NW 12.7 mph - N/A   Scattered Clouds
8:54 AM 14.0 °F 1.2 °F -5.1 °F 43% 30.40 in 10.0 mi NW 10.4 mph - N/A   Overcast
9:54 AM 14.0 °F 0.5 °F -4.0 °F 45% 30.42 in 10.0 mi NW 11.5 mph - N/A   Overcast
10:54 AM 14.0 °F 2.0 °F -5.1 °F 43% 30.42 in 10.0 mi NNW 9.2 mph - N/A   Mostly Cloudy
11:54 AM 15.1 °F 4.2 °F -5.1 °F 41% 30.39 in 10.0 mi NW 8.1 mph - N/A   Mostly Cloudy
12:54 PM 15.1 °F 6.4 °F -5.1 °F 41% 30.36 in 10.0 mi WNW 5.8 mph - N/A   Overcast
1:54 PM 16.0 °F 4.4 °F -4.0 °F 41% 30.35 in 10.0 mi NW 9.2 mph - N/A   Overcast
2:54 PM 16.0 °F 4.4 °F -4.0 °F 41% 30.36 in 10.0 mi WNW 9.2 mph - N/A   Overcast
3:54 PM 16.0 °F 6.3 °F -4.0 °F 41% 30.34 in 10.0 mi WNW 6.9 mph - N/A   Overcast
4:54 PM 16.0 °F 8.8 °F -4.0 °F 41% 30.35 in 10.0 mi NW 4.6 mph - N/A   Overcast
5:54 PM 16.0 °F 7.4 °F -2.9 °F 43% 30.34 in 10.0 mi NW 5.8 mph - N/A   Overcast
6:54 PM 16.0 °F 7.4 °F -2.9 °F 43% 30.33 in 10.0 mi NNW 5.8 mph - N/A   Overcast
7:54 PM 16.0 °F 8.8 °F -2.9 °F 43% 30.34 in 10.0 mi NNW 4.6 mph - N/A   Overcast
8:54 PM 16.0 °F 8.8 °F -0.9 °F 47% 30.31 in 10.0 mi NW 4.6 mph - N/A   Overcast
9:54 PM 15.1 °F 6.4 °F -0.0 °F 51% 30.29 in 10.0 mi WNW 5.8 mph - N/A   Overcast
10:44 PM 14.0 °F 2.9 °F 5.0 °F 67% 30.28 in 4.0 mi NNW 8.1 mph - 0.00 in Snow Light Snow
10:54 PM 12.9 °F 1.6 °F 7.0 °F 77% 30.27 in 2.5 mi NNW 8.1 mph - 0.00 in Snow Light Snow
11:14 PM 12.9 °F 2.6 °F 9.0 °F 84% 30.26 in 1.8 mi NNW 6.9 mph - 0.00 in Snow Light Snow
11:54 PM 12.0 °F 1.5 °F 9.0 °F 88% 30.25 in 1.8 mi NNW 6.9 mph - 0.00 in Snow Light Snow